Location: Alando
(42.3054°N, 9.2895°E)
Time: 21:00:44
(UTC+00:00)

USA 32 - Pass Details

Date: 09 April 2020
Orbit: 777 x 783 km, 85.0° (Epoch: 03 June)

Event Time Altitude Azimuth Distance (km) Brightness Sun altitude
Rises 20:19:28 0° 359° (N) 3,270 7.8 -24.4°
Reaches altitude 10° 20:21:54 10° 5° (N) 2,338 6.9 -24.8°
Enters shadow 20:26:24 50° 56° (ENE) 989 4.4 -25.4°
